Weather in Leikanger

Norway     61°11′10″N   6°49′06″E
temp.,
°C
wind,
m/s
gust,
m/s
humid.,
%
clouds,
%
prec.,
mm/h
press.,
hPa
HPBL,
m
11 may, tue
tue1123:00+4se229753 1.3 100221
02:00+1e119655 1.4 100433
05:00+2e219889 0.0 100726
08:00+3e229260 0.0 100976
11:00+7e127474 0.0 1009343
14:00+10s355158 0.1 10101648
17:00+11s254820 0.1 10101605
20:00+9se225998 0.1 1011474
12 may, wed
wed1223:00+4ene228498 0.0 101413
02:00+2ene118975 0.0 101411
05:00+2ene218988 0.0 101311
08:00+4ene2280100 0.0 1012135
11:00+7ene2268100 0.0 1010323
14:00+9ene2257100 0.0 1009589
17:00+8ne1162100 0.1 1008669
20:00+7ne226996 0.3 1008360
13 may, thu
thu1323:00+5ne228062 0.0 101014
02:00+3ene118922 0.0 101010
05:00+2ene11925 0.0 101010
08:00+5e118492 0.0 1011199
11:00+8e116864 0.0 1010493
14:00+12ne105078 0.0 1009890
17:00+13ne114382 0.0 10081253
20:00+13ene114596 0.0 1007901
14 may, fri
fri1423:00+9ene126785 0.0 100811
02:00+7e117989 0.0 100911
05:00+6e1185100 0.0 100810
08:00+8e1174100 0.0 1008143
11:00+12e115954 0.0 1007548
14:00+13ese215690 0.0 1007711
17:00+14e115455 0.0 1006717
20:00+15ene115594 0.1 1005612
15 may, sat
sat1523:00+10wnw017336 0.0 100411
02:00+10ese0177100 0.0 100511
05:00+9sse1179100 0.1 100411
08:00+10e1177100 0.1 1004117
11:00+11ese127075 0.1 1004355
14:00+14s225638 0.3 10031156
17:00+14s115356 1.3 10011146
20:00+11ese2279100 4.3 1001226